Starlink 31010

operational
NORAD ID: 58519 Int'l Des: 2023-191 Owner: SPXS Country: US Constellation: starlink
LEOCIRCULAR

Starlink 31010について

説明を読み込み中...

リアルタイム位置

3D地球を読み込み中...

次回通過

高度履歴

Altitude vs Time

uPlot chart will show altitude changes over time

軌道要素

1 58519U 23191M 25303.77651972 .00000587 00000-0 58519-4 0 9993
2 58519 43.0044 91.4465 0001310 269.6783 90.3909 15.02536745105903
Epoch: Oct 30, 2025 • Age: 22 hours

現在のステータス

高度 563.4 km
速度 7.58 km/s
衛星直下点 -21.30°S, 129.15°E
打ち上げ日 Dec 7, 2023
運用期間 1.9 years
タイプ internet

技術仕様

分類 Payload
質量 730.00 kg
乾燥質量 700.00 kg
総質量 730.00 kg
長さ 0.30 m
直径 4.10 m
スパン 29.00 m
形状 Box + pan
製造者 SPXS
バスタイプ Starlink V2M
フェーズステータス In Orbit
所有者/国 SPXS/US

大規模コンステレーション

Loading constellations...